STARLINK-32176, 60340

Orbit data source: Space-Track

STARLINK-32176, 60340 is a payload satellite owned by SpaceX/Seattle (US) in LEO that was launched on Fri, 02 Aug 2024 UTC via an FALCON 9 launch vehicle from the Air Force Eastern Test Range (AFETR). Payload-class satellites include a variety of spacecraft equipped with specific instruments for various scientific and technological missions. These include communications satellites like Starlink; space stations such as the ISS; scientific satellites like the Hubble; Earth observation satellites from companies like Planet Labs, Umbra, and HawkEye 360; GPS; miniature CubeSats for education and research; and military/defense satellites.

Loading next visibility...
Identifier
60340, 2024-136M
Orbit
LEO
Country
Flag of USUS
Related business
Manufacturer
SpaceX/Seattle
Mission
Operational Commercial Communications
Bus & Motor
STARLINK V2M, Unknown motor
Mass
730 kg wet, ~700 kg dry
Launch date (UTC)
2024-08-02 (2 years ago)
Launch vehicle
FALCON 9
Launch site
Air Force Eastern Test Range (AFETR)
Object type
Payload
Rocket body
Debris
Shape & HBR
Box + 2 Pan, 17.7 m
Radar Cross Section
33.884 m², Large (>1 m²)

Expand to show TLE details & history
Last TLE update: 4 hours ago

TLE from 4 hours ago
0 STARLINK-32176
1 60340U 24136M   26125.50720072  .00000402  00000-0  25714-4 0  9997
2 60340  53.1604 171.7490 0001336  85.6878 274.4276 15.30193432 99537
Epoch: 2026-05-05T12:10Z
TLE epoch observation values (Epoch: 2026-05-05T12:10:22.142Z)
Latitude
0.00004°
Longitude
125.77572°
Altitude
476.064 km
Speed
7.629 km/s
True Right ascension
11h 26m 59s
True Declination
0° 00' 00"
Sunlit
Object was in full shadow at epoch
Visualization orbit readout
Latitude
Unknown
Longitude
Unknown
Altitude
Unknown
Speed
Unknown
Apparent Right ascension
Unknown
Apparent Declination
Unknown
Sunlit
N/A
Visualization observer readout
Local Sidereal Time
00:07:54
Azimuth
Unknown
Elevation
Unknown
Doppler factor
Unknown
Orbital elements
Apogee altitude
476.407 km
Perigee altitude
474.575 km
Semi-major axis
6,853.628 km
Eccentricity
0.00013
Inclination
53.1604°
RAAN
171.749°
Arg. of periapsis
85.6878°
True anomaly
274.41234°
Mean anomaly
274.4276°
Eccentric anomaly
274.41997°
Mean motion
3.82527 °/min
Orbital period
94.11 mins
BSTAR
0.000025714
Loading maneuver chart data...
Computing Atmospheric mass density...
Loading historical data...
Loading historical data...
Loading historical data...
Loading historical data...
Loading historical data...
Loading historical data...
Loading historical data...

Documentation

Showing up to 5 results
|